Location: Brachbach
(49.1847°N, 9.7240°E)
Time: 05:14:34
(UTC+00:00)

Cosmos 2219 Rocket - Pass Details

Date: 18 August 2024
Orbit: 826 x 846 km, 71.0° (Epoch: 16 September)

Event Time Altitude Azimuth Distance (km) Brightness Sun altitude
Exits shadow 01:22:30 12° 281° (W) 2,300 4.3 -22.6°
Maximum altitude 01:25:53 20° 322° (NW) 1,870 4.2 -22.4°
Drops below altitude 10° 01:30:01 10° 8° (N) 2,481 5.5 -22.0°
Sets 01:33:10 0° 25° (NNE) 3,419 6.8 -21.7°
